Theta_e
327 325 333 338 338 336 334 334 332 332 332 331 330 330 330 330 331 331 332 332 331 330 331 331 331 330 328 326 330 341 341 341 335 336 333 332 333 334 335 334 333 333 333
328 328 338 340 334 332 334 333 333 333 333 331 330 329 328 328 329 330 329 329 331 330 331 331 331 331 334 326 331 340 340 341 339 337 333 333 333 334 333 332 331 332 332
331 332 339 338 334 335 334 333 333 332 332 331 330 329 329 329 328 328 329 330 329 331 332 331 330 329 335 335 334 338 340 341 340 338 334 334 332 333 331 331 330 331 333
334 339 340 336 335 336 334 333 332 332 331 331 331 330 328 328 328 328 327 329 330 331 330 329 328 328 332 334 337 341 339 341 341 338 334 333 332 331 330 331 332 333 332
339 341 339 334 335 335 334 334 333 332 331 331 329 329 330 328 329 329 329 329 330 330 330 329 328 325 330 334 337 340 339 340 341 338 335 333 332 332 331 333 333 331 327
342 339 333 334 335 335 335 334 333 332 331 330 329 329 329 327 327 328 329 329 329 329 330 330 330 329 320 331 336 338 339 340 341 339 336 333 332 332 332 333 329 326 324
332 332 334 334 334 335 334 332 332 331 330 330 327 328 328 328 328 328 329 330 329 328 329 329 328 331 324 322 327 337 338 340 340 337 336 334 333 333 334 330 323 318 317
333 335 335 336 336 335 332 332 331 330 329 328 327 327 326 326 327 327 328 330 330 329 329 328 326 329 330 323 324 335 337 339 339 337 335 333 332 332 330 321 317 314 319
335 335 335 334 333 333 331 331 330 330 328 327 327 322 323 327 324 326 327 328 329 329 329 328 328 331 329 325 323 332 337 338 338 337 336 332 331 331 325 317 311 317 314
336 335 334 332 331 331 331 330 329 329 328 327 326 325 325 326 323 322 326 328 328 329 329 330 331 331 331 330 327 331 336 336 337 337 334 331 330 330 320 314 323 318 322
334 334 332 332 331 330 330 330 330 329 328 328 327 327 327 325 326 321 323 325 328 328 328 329 330 331 329 330 332 332 335 336 337 335 333 331 329 328 323 325 319 320 323
334 334 333 332 330 330 329 329 328 328 328 328 328 327 327 323 321 322 320 322 323 327 329 330 329 329 330 332 333 332 335 335 335 333 332 328 330 326 325 321 321 323 322
333 333 333 332 330 329 329 329 330 329 328 328 328 328 328 328 325 322 322 323 324 328 329 330 329 329 330 331 333 334 333 335 334 332 329 330 326 322 322 323 323 322 322
332 333 332 330 329 331 331 329 329 328 329 329 328 328 328 328 327 327 323 325 325 326 328 330 330 329 329 328 331 334 333 332 331 332 330 327 325 321 322 317 320 322 322
332 330 329 330 330 331 331 328 329 328 328 329 328 328 328 328 324 324 327 326 326 329 327 328 330 329 328 328 328 330 326 324 326 330 325 316 319 322 319 322 322 319 318
329 330 330 331 332 331 331 330 329 329 328 326 327 328 328 328 327 325 327 326 327 327 326 327 328 329 328 328 329 327 326 328 328 322 318 314 320 321 317 319 320 321 319
331 330 332 332 331 331 331 331 330 329 327 324 325 326 328 329 327 327 327 327 327 327 327 327 328 328 327 326 326 325 323 322 317 315 318 319 317 318 322 322 322 321 316
330 330 331 331 331 331 330 328 329 327 327 326 324 327 327 328 329 328 327 327 326 326 327 327 325 325 324 322 320 319 318 318 322 318 318 322 322 321 321 320 317 311 311
329 330 331 331 331 330 331 331 330 329 329 326 327 326 329 329 328 328 325 327 326 326 326 325 323 324 322 321 322 322 321 321 322 322 319 318 317 316 314 312 313 312 313
329 330 330 330 330 329 330 330 330 330 329 328 327 327 328 329 328 327 327 326 326 326 325 323 323 323 323 323 322 320 319 318 319 320 317 313 315 317 316 314 313 314 314
329 331 330 329 328 328 328 328 330 331 330 328 329 328 328 328 328 328 327 326 326 325 324 324 324 323 322 321 320 319 316 315 315 314 317 319 319 317 315 315 315 313 311
330 330 329 328 328 327 327 328 331 332 329 329 327 327 327 327 326 326 326 326 325 325 324 323 323 322 322 320 318 318 316 315 313 316 316 315 316 316 315 313 311 309 305
330 329 328 329 327 327 329 331 331 331 329 327 327 328 328 328 327 326 326 326 325 324 323 322 322 321 320 319 318 317 317 316 315 314 317 308 310 313 310 308 305 304 302
330 328 328 327 327 328 330 331 331 330 328 328 328 328 328 328 328 326 324 323 323 323 322 322 321 321 322 319 318 318 316 314 314 313 314 306 305 305 305 304 303 302 298
330 329 328 326 327 328 331 330 330 330 329 328 328 326 327 327 326 325 323 323 322 322 322 321 321 322 320 319 319 316 315 312 311 310 311 309 304 304 303 303 302 300 295
330 329 326 324 327 329 331 331 330 330 328 327 327 327 327 326 325 325 323 323 322 321 321 321 320 320 320 319 319 318 316 313 312 312 313 310 306 307 304 303 302 300 294
Wind_Speed
33 26 22 21 19 20 19 20 18 19 17 16 15 15 15 14 16 14 15 16 15 16 22 20 17 15 13 13 17 19 21 25 27 26 26 23 21 20 20 19 17 17 17
31 24 23 22 20 17 16 19 19 18 19 15 17 18 17 15 16 16 15 17 17 13 22 21 18 17 15 14 17 19 23 26 26 28 25 24 23 21 20 20 19 18 17
29 28 24 22 19 17 18 19 16 15 16 15 17 17 16 15 15 16 13 15 14 13 16 18 17 16 17 14 17 19 23 26 27 26 28 26 24 21 21 21 19 18 19
28 28 25 19 17 17 19 18 17 17 18 18 19 18 20 16 16 17 15 14 13 18 17 18 18 17 18 16 16 17 21 24 28 31 30 27 23 20 19 19 19 19 23
28 27 23 18 17 15 17 18 19 18 18 18 17 15 17 17 13 14 15 17 16 17 17 16 15 14 18 17 17 18 21 24 27 31 30 26 24 21 18 18 24 25 25
27 24 19 15 15 16 17 18 19 18 18 18 14 14 14 15 16 15 14 15 18 18 17 14 12 15 17 19 18 17 21 25 27 30 29 28 23 21 20 27 25 26 26
23 26 20 15 17 20 22 21 20 17 17 14 7 11 14 16 16 16 15 14 18 18 19 18 14 13 18 19 20 20 21 25 27 29 31 28 24 25 29 24 26 26 18
22 23 16 17 18 18 17 17 16 12 10 9 5 3 2 4 16 18 17 16 14 15 16 15 15 14 18 19 21 20 21 25 28 31 31 28 24 28 25 25 28 19 17
23 19 16 15 13 13 12 10 12 12 10 12 13 4 1 3 2 6 17 16 14 11 14 16 15 12 13 18 20 20 23 26 29 32 32 29 29 28 28 29 23 20 17
20 17 13 10 11 11 10 9 10 12 11 11 12 16 6 3 2 2 3 13 13 13 12 11 15 14 14 17 21 22 23 28 30 32 33 31 32 32 30 27 25 21 19
14 11 9 9 9 9 8 8 8 14 15 15 12 5 14 12 4 2 2 1 9 9 9 11 14 15 15 17 20 22 24 30 33 33 33 35 33 35 31 28 24 20 18
11 9 8 8 7 8 8 8 9 12 15 15 15 15 10 5 5 4 1 0 3 4 7 12 14 14 13 16 20 24 26 31 34 34 36 37 37 35 33 27 23 20 18
11 11 10 10 9 8 8 8 9 10 11 12 14 15 16 16 9 8 5 2 3 4 5 8 11 11 11 13 18 22 27 33 36 36 35 38 38 36 30 26 22 20 18
6 8 9 9 8 6 6 7 8 9 9 11 10 11 14 16 17 11 9 8 3 2 6 4 8 10 13 13 16 22 25 25 36 34 41 44 40 35 30 25 22 20 18
7 9 9 8 7 7 7 8 8 9 10 9 9 11 12 13 15 14 15 25 12 4 3 4 5 11 12 16 18 26 36 29 31 41 44 40 35 30 28 25 22 18 17
10 10 8 8 7 8 8 9 10 8 7 6 5 7 12 13 13 9 19 27 17 16 4 4 5 19 20 21 22 24 27 29 39 44 40 40 34 31 28 24 22 20 18
11 8 8 7 8 7 7 7 6 6 9 7 5 6 9 10 17 17 16 18 19 20 11 8 17 24 25 25 25 31 39 47 46 43 38 35 32 28 25 23 21 19 16
10 8 8 7 6 5 4 4 7 8 8 7 7 5 3 6 15 14 16 22 25 23 26 17 19 21 31 35 39 38 34 39 40 36 35 31 28 24 21 20 18 15 11
10 8 7 8 8 4 4 4 1 4 10 9 7 5 5 7 14 18 23 25 25 27 25 25 16 25 32 37 32 32 36 38 37 36 32 28 25 23 19 17 13 12 9
9 8 11 11 7 6 4 3 2 3 9 8 5 7 6 13 20 24 25 24 26 26 26 26 25 27 27 28 34 34 29 32 32 34 30 25 20 18 16 14 11 9 8
8 15 14 10 7 6 3 2 2 4 10 10 10 9 9 15 18 22 28 28 28 25 26 26 22 22 26 29 29 30 31 32 30 29 26 20 18 16 14 12 10 8 9
17 15 11 11 8 6 4 3 2 7 12 14 14 10 12 18 17 15 19 28 34 32 27 25 25 25 26 28 32 31 32 27 9 22 23 19 17 15 13 10 10 12 12
18 13 12 10 9 7 4 3 5 9 13 15 13 13 14 16 17 19 23 27 33 32 34 36 30 28 32 35 36 29 27 21 19 23 22 14 13 14 12 14 14 12 10
16 14 12 11 11 7 4 6 10 12 14 13 11 12 17 18 19 25 26 28 28 30 32 32 40 37 46 37 32 33 27 22 27 23 19 6 13 11 14 15 14 12 10
17 15 12 13 12 7 7 10 13 15 15 13 12 13 17 20 22 28 30 28 28 23 24 31 35 41 40 36 35 31 27 29 14 17 10 12 14 10 14 15 14 12 10
16 16 12 12 12 8 8 11 13 17 16 16 14 14 17 22 27 32 31 32 27 28 28 29 27 33 33 29 29 27 32 26 18 8 13 11 19 11 6 14 16 15 13
Wind_Direction
221 219 224 229 239 237 241 237 239 250 252 247 248 254 263 261 248 248 255 253 271 246 224 227 224 224 219 220 210 200 203 202 194 199 199 196 189 187 184 180 180 183 173
222 218 219 219 230 231 235 228 234 244 242 234 243 249 253 253 247 249 255 254 255 248 221 226 227 232 228 215 211 201 200 200 201 198 197 197 192 187 186 180 176 169 160
221 216 217 217 232 239 214 218 218 215 226 233 244 250 252 262 257 255 254 235 243 226 210 221 232 234 227 214 211 205 201 200 203 200 198 195 193 190 192 192 189 171 159
212 211 208 218 223 220 218 224 226 232 238 248 255 254 251 259 268 249 243 236 223 215 218 229 236 238 224 213 211 204 204 201 204 199 199 196 195 193 185 183 176 159 155
209 212 213 216 222 222 230 236 238 245 249 251 251 251 250 253 264 236 242 234 231 221 222 228 234 239 218 213 214 206 207 201 200 197 198 198 195 188 179 164 145 143 145
201 212 217 225 229 234 238 233 243 245 249 251 244 248 247 247 251 249 242 228 224 223 223 241 238 233 223 216 215 209 209 199 203 198 196 191 190 182 169 152 145 145 139
209 210 212 222 226 231 242 258 259 241 242 238 239 254 248 243 244 249 243 229 224 224 229 234 241 235 225 218 214 209 210 201 197 193 194 188 184 167 156 151 148 146 144
203 203 218 227 229 236 256 260 241 228 225 213 182 162 229 256 242 242 238 235 225 222 224 232 237 243 230 218 214 214 207 203 192 190 191 185 182 171 163 154 152 154 152
200 207 213 224 243 255 261 256 224 228 218 209 201 158 122 229 322 229 226 230 236 241 240 231 235 220 223 218 216 216 208 204 191 183 186 185 177 171 161 159 159 155 145
193 202 217 232 249 248 242 236 226 223 219 212 212 226 230 142 141 346 216 220 235 237 218 209 209 217 219 226 220 215 205 198 187 179 180 179 171 165 161 161 156 151 144
188 208 221 233 245 237 226 218 225 226 226 225 211 185 227 232 223 134 225 137 191 188 211 203 201 220 229 221 215 210 204 194 183 176 174 172 166 163 156 157 162 150 145
196 218 229 228 226 223 225 221 228 229 230 232 233 232 211 180 180 174 133 171 133 137 175 184 205 219 220 214 209 204 197 190 179 175 172 169 164 155 152 156 149 148 147
212 216 209 208 215 218 220 222 228 227 226 226 227 227 230 231 215 183 156 135 120 98 100 156 184 196 184 191 187 192 191 180 176 168 172 166 150 152 149 147 144 145 149
206 199 201 200 208 206 205 207 216 217 223 222 233 229 226 219 227 228 192 151 91 98 72 118 171 170 174 165 170 183 178 157 154 167 165 150 149 143 147 147 143 150 147
199 184 187 198 190 199 203 209 211 214 221 221 227 222 213 195 208 234 219 182 144 137 140 94 118 150 149 164 160 155 156 155 155 166 155 147 145 144 143 145 148 147 144
167 183 185 190 198 208 210 215 222 234 206 185 199 182 184 189 189 196 190 180 160 142 126 127 98 146 139 151 161 161 159 157 159 144 146 147 146 148 145 148 152 149 147
182 184 185 181 191 196 204 212 231 223 194 189 196 182 189 196 185 180 173 175 167 156 127 112 129 156 146 143 149 148 147 144 141 144 146 144 144 143 148 152 150 149 150
181 182 178 168 181 184 180 183 198 202 192 190 183 184 198 189 171 189 201 180 166 153 139 128 135 131 130 129 126 121 126 135 142 137 134 141 141 142 145 147 149 149 157
188 189 187 183 158 147 131 130 134 152 181 179 191 174 144 146 149 161 160 158 155 145 138 140 133 135 132 131 130 131 128 133 137 139 140 141 146 149 154 155 160 164 181
187 186 157 154 148 139 127 118 121 158 167 166 181 164 138 139 134 133 135 135 138 136 132 128 135 135 135 134 133 126 118 130 134 139 142 148 154 151 153 160 167 179 183
187 163 147 139 141 138 122 156 115 141 165 170 163 156 151 143 138 139 140 138 141 135 135 137 136 134 132 134 132 128 119 123 133 145 146 148 150 157 161 170 173 179 173
169 154 152 148 148 140 146 181 129 147 134 147 150 145 144 167 155 150 148 156 159 147 146 144 143 139 139 130 133 133 131 131 120 153 140 138 162 165 166 171 171 161 160
159 154 152 154 144 135 135 144 145 147 142 140 142 145 149 156 161 159 163 162 158 155 151 145 142 143 138 144 142 141 143 145 139 155 153 135 160 163 167 168 166 170 178
159 157 152 156 152 141 114 128 136 138 138 139 140 144 151 154 158 153 145 141 138 147 149 151 148 145 153 153 149 148 148 142 146 155 169 129 166 169 172 176 179 187 196
164 165 159 162 157 135 112 139 137 135 130 131 133 140 154 151 151 147 134 125 124 125 139 143 146 154 154 156 156 148 142 138 138 165 169 158 176 176 186 194 197 202 209
168 163 154 160 158 138 128 150 150 143 133 132 133 141 154 152 151 151 138 138 130 133 146 143 141 148 155 155 162 168 165 148 142 157 195 165 172 172 190 216 212 216 213